Regional Weather Roundup
Issued by NWS

Home | Current Version | Previous Version | Text Only | Print | Product List | Glossary On
Versions: 1 2 3 4 5 6 7 8 9 10 11 12 13 14 15 16 17 18 19 20 21 22 23 24 25 26 27
000
ASUS45 KBOU 240010
RWRCO

WEATHER ROUNDUP FOR COLORADO
NATIONAL WEATHER SERVICE DENVER/BOULDER CO
500 PM MST TUE JAN 23 2018

NOTE: "FAIR" INDICATES FEW OR NO CLOUDS BELOW 12000 FEET WITH NO
SIGNIFICANT WEATHER AND/OR OBSTRUCTIONS TO VISIBILITY.

COZ001>005-013-030-031-240100-
...NORTHWEST COLORADO...

CITY           SKY/WX    TMP DP  RH WIND       PRES   REMARKS
CRAIG          FAIR      20  11  68 CALM      30.33R
HAYDEN         FAIR      21  15  78 SW6       30.33R WCI  13
MEEKER         FAIR      25  16  68 CALM      30.31R
RABBIT EARS PA FAIR     N/A N/A N/A W12G18    30.20S
STEAMBOAT SPGS FAIR      24  13  63 CALM      30.31R
WALDEN         FAIR      19   5  53 SW6       30.25R WCI  11
$$

COZ006>008-011-240100-
...WEST CENTRAL VALLEYS...

CITY           SKY/WX    TMP DP  RH WIND       PRES   REMARKS
GRAND JUNCTION FAIR      30  25  81 CALM      30.35R
MONTROSE       FAIR      36  11  35 NW5       30.34R
EAGLE          FAIR      33   9  36 W10       30.32R WCI  25
RIFLE          FAIR      35  20  54 W5        30.34R WCI  31
DELTA          FAIR      40  17  40 SW7       30.34R
NUCLA          FAIR      36  16  44 W5        30.34S
$$

COZ017>023-064>068-240100-
...SOUTHWEST COLORADO...

CITY           SKY/WX    TMP DP  RH WIND       PRES   REMARKS
DURANGO        FAIR      32  19  58 E7        30.27R WCI  26
CORTEZ         FAIR      38  17  42 W7        30.29R
PAGOSA SPRINGS FAIR      31  18  59 CALM      30.27R
TELLURIDE      FAIR      28   4  36 W6        30.29R WCI  22
WOLF CREEK PAS FAIR      19   3  49 SW6       30.30R WCI  11
$$

COZ009-010-012-014-032>034-037-058>063-240100-
...CENTRAL COLORADO...

CITY           SKY/WX    TMP DP  RH WIND       PRES   REMARKS
ASPEN          FAIR      27  11  51 W5        30.27R WCI  22
BUENA VISTA    FAIR      27   3  35 CALM      30.23R
COPPER MTN     NOT AVBL
BERTHOUD PASS  FAIR       3  -8  60 NW35G41   30.12S WCI -23
COTTONWOOD PAS FAIR      30  -4  22 W14G21    30.22R WCI  20
GUNNISON       FAIR      26  12  55 N7        30.28R WCI  18
KREMMLING      FAIR      30  14  51 E6        30.29R WCI  24
LEADVILLE      FAIR      18   4  54 NW14      30.21R WCI   4
MONARCH PASS     N/A     10   7  85 W31       30.29S WCI -12
SALIDA         FAIR      32   9  38 SW12      30.30R WCI  23
SUNLIGHT       FAIR      14  10  85 SW7       30.31R WCI   4
WILKERSON PASS FAIR      18  -2  41 SW5       30.21S WCI  11
$$

COZ069>075-240100-
...SAN LUIS VALLEY/SANGRE DE CRISTO MOUNTAINS...

CITY           SKY/WX    TMP DP  RH WIND       PRES   REMARKS
ALAMOSA        FAIR      32   9  38 CALM      30.25R
DEL NORTE      FAIR      32   3  30 E6        30.26R WCI  26
LA VETA PASS   FAIR      21   5  49 S20         N/A  WCI   6
SAGUACHE       FAIR      32  10  40 SE5       30.26R WCI  27
$$

COZ035-036-038>040-240100-
...NORTHERN COLORADO FRONT RANGE...

CITY           SKY/WX    TMP DP  RH WIND       PRES   REMARKS
DENVER INTL AP FAIR      27  14  58 SE10      30.22R WCI  17
DMNS CITY PARK NOT AVBL
AURORA         PTCLDY    29  17  59 E8        30.22R WCI  21
FRONT RANGE AP PTCLDY    30  18  59 MISG      30.24R
ERIE MUNI ARPT FAIR      33  16  50 SE13      30.28R WCI  23
BOULDER MUN AP FAIR      32  18  55 N6        30.21R WCI  26
CENTENNIAL     FAIR      32  13  45 S9        30.21R WCI  24
BROOMFIELD     PTCLDY    37   9  30 CALM      30.22R
FORT COLLINS   FAIR      29  18  63 S8        30.23R WCI  21
LONGMONT       FAIR      35  17  46 E3        30.25R
$$

COZ041-046-047-076>085-087-088-240100-
...PIKES PEAK/PALMER DIVIDE AND SOUTHERN FOOTHILLS...

CITY           SKY/WX    TMP DP  RH WIND       PRES   REMARKS
COLO. SPRINGS  FAIR      35   9  33 S9        30.23R WCI  28
A. F. ACADEMY  FAIR      32   8  36 S9        30.21R WCI  24
SCHRIEVER AFB  FAIR      32   5  32 S5        30.23R WCI  27
CHEYENNE MTN   FAIR      32   4  31 S10       30.16R WCI  23
ELLICOTT         N/A    N/A N/A N/A SE9       30.22R
FALCON         FAIR      29   7  40 E5        30.23R WCI  24
FORT CARSON    FAIR      36   6  28 S8        30.22R
LIMON          FAIR      27  15  61 NE8       30.25R WCI  19
MONUMENT HILL  FAIR      23  10  58 E6        30.23R WCI  16
CANON CITY     FAIR      41  14  33 E8        30.21R
WALSENBURG     NOT AVBL
TRINIDAD       FAIR      37  10  32 E7        30.24R
$$

COZ042>045-048>051-090-091-240100-
...NORTHEAST COLORADO...

CITY           SKY/WX    TMP DP  RH WIND       PRES   REMARKS
GREELEY ARPT   FAIR      32  20  61 NE10      30.24R WCI  24
AKRON          FAIR      26  17  68 N13       30.24R WCI  15
BURLINGTON     FAIR      29  19  66 W7        30.27R WCI  22
WRAY           FAIR      34  21  60 NW3       30.25S
YUMA           FAIR      32  19  59 NW6       30.25R WCI  26
STERLING       FAIR      32  21  64 N9        30.25R WCI  24
HOLYOKE        FAIR      34  23  64 NW10      30.25S WCI  26
FORT MORGAN    FAIR      32  16  51 N14       30.25R WCI  22
$$

COZ086-089-092>099-240100-
...SOUTHEAST COLORADO...

CITY           SKY/WX    TMP DP  RH WIND       PRES   REMARKS
PUEBLO         FAIR      43   6  21 SE9       30.23R
LA JUNTA       FAIR      39  15  37 SE7       30.26R
LAMAR          FAIR      39  14  36 S5        30.27R
SPRINGFIELD      N/A     34  11  38 E5        30.28R WCI  30
$$




USA.gov is the U.S. government's official web portal to all federal, state and local government web resources and services.